SCP
-0 -0 -0 0 0 0 0 -0 -0 -0 -0 -0 -0 -0 -0 -0 -0 -0 -0 -0 -0 -0 0 0 0 -0 -0 0 0 0 0 0 0 0 -0 0 0 0 0 0 0 0 0
0 0 0 0 0 0 0 -0 -0 -0 -0 -0 -0 -0 -0 -0 -0 -0 0 0 0 0 0 0 0 0 0 0 -0 -0 -0 -0 -0 -0 -0 -0 -0 -0 -0 0 0 0 0
0 -0 0 0 0 0 0 0 0 0 0 0 0 0 0 0 0 0 0 0 0 0 0 0 0 0 0 -0 -0 -0 -0 -0 -0 -0 -0 -0 -0 -0 -0 -0 -0 0 0
0 0 0 0 0 0 0 0 0 0 0 0 0 0 0 0 0 0 0 0 0 0 0 0 0 0 0 0 0 0 -0 -0 -0 -0 -0 -0 -0 0 0 -0 -0 -0 -0
0 0 0 -0 -0 -0 0 0 0 0 0 0 0 0 0 0 0 0 0 0 0 0 0 0 0 0 0 0 -0 -0 -0 -0 -0 -0 -0 -0 -0 -0 0 0 -0 0 0
-0 0 0 -0 -0 -0 0 0 0 0 0 0 0 0 0 0 0 0 0 0 0 0 0 0 0 -0 -0 -0 -0 -0 -0 -0 -0 -0 -0 -0 -0 0 0 0 0 0 0
0 -0 -0 -0 -0 -0 -0 0 0 0 0 0 0 0 0 0 0 0 0 0 0 0 -0 -0 -0 -0 -0 -0 -0 -0 -0 -0 -0 -0 -0 -0 -0 -0 0 0 0 0 0
0 -0 0 0 -0 0 0 0 0 0 0 0 0 0 0 0 0 0 0 0 0 0 0 0 -0 -0 -0 -0 -0 -0 -0 -0 -0 0 -0 -0 -0 -0 0 0 0 0 0
-0 0 0 -0 -0 -0 -0 -0 0 0 0 0 0 0 0 0 0 0 0 0 0 0 0 0 0 0 0 0 0 0 0 0 0 0 0 -0 -0 -0 0 0 0 0 0
-0 -0 -0 0 -0 -0 -0 -0 -0 0 0 0 0 0 0 0 0 0 0 0 0 0 0 -0 0 0 0 0 0 0 0 0 0 0 0 -0 -0 -0 0 0 0 0 0
0 0 0 0 0 0 0 0 0 -0 0 0 0 0 0 0 0 0 0 0 0 0 0 -0 0 0 0 0 0 0 0 0 0 0 0 0 0 0 -0 0 0 0 0
0 0 0 0 0 0 0 0 0 0 0 0 0 0 0 0 0 0 0 0 0 0 0 0 0 0 0 0 0 0 0 0 0 0 0 0 0 0 0 0 0 0 0
0 0 0 0 0 0 0 0 0 0 0 0 0 0 0 0 0 0 0 0 0 0 0 0 0 0 0 0 0 0 0 0 0 0 0 0 0 0 0 0 1 0 0
0 0 0 0 0 0 0 0 0 0 0 0 0 0 1 0 0 0 0 0 0 0 0 1 0 0 0 0 0 0 0 0 0 0 0 0 0 0 0 0 0 0 0
-0 -0 -0 0 0 0 0 0 -0 0 0 0 0 0 0 0 0 0 0 0 0 0 0 0 0 0 0 0 0 0 0 0 0 0 0 0 0 0 0 0 0 0 0
-0 -0 -0 -0 -0 -0 -0 0 0 0 -0 -0 -0 0 0 0 0 0 0 0 0 0 0 0 0 0 0 0 0 0 0 0 0 0 0 0 0 0 0 0 0 0 0
-0 -0 -0 -0 0 0 0 0 0 0 0 0 0 0 0 0 0 0 0 0 0 0 0 0 0 0 0 0 0 0 0 0 0 0 0 0 0 0 1 0 0 0 0
-0 -0 -0 0 -0 -0 -0 -0 0 0 0 0 0 0 0 0 0 0 0 0 0 0 0 0 0 0 0 0 0 0 0 0 0 0 0 0 1 1 1 2 1 1 1
-0 -0 -0 -0 -0 -0 -0 0 0 0 0 0 0 0 0 0 0 0 0 0 0 0 0 0 0 0 0 0 0 0 0 0 0 0 0 0 0 1 1 1 2 2 1
-0 -0 0 0 0 0 0 0 0 0 0 0 0 0 0 0 0 0 0 0 0 0 0 0 0 0 0 0 0 0 0 0 0 1 0 0 0 0 0 0 0 1 1
-0 0 0 0 0 0 0 0 0 0 0 0 0 0 0 0 0 0 0 0 0 0 0 0 0 0 0 0 0 0 0 0 0 0 0 0 0 0 0 0 0 0 1
0 0 0 0 0 0 0 0 0 0 0 0 0 0 0 0 0 0 0 0 0 0 0 0 0 0 0 0 0 0 0 0 0 0 0 0 0 0 0 0 0 1 1
0 0 0 0 0 0 0 0 0 0 0 0 0 0 0 0 0 0 0 0 0 0 0 0 0 0 0 0 0 0 0 0 0 0 0 0 0 0 0 0 0 0 0
0 0 0 0 0 0 0 0 0 0 0 0 0 0 0 0 0 0 0 0 0 0 0 0 0 0 0 -0 0 0 0 0 0 0 0 0 0 0 0 0 0 0 0
0 0 0 0 0 0 0 0 0 0 0 0 0 0 0 0 0 0 0 0 0 0 0 0 0 0 0 -0 0 0 0 0 0 0 0 0 0 0 0 0 0 0 0
0 0 0 0 0 0 0 0 0 0 0 0 0 0 0 0 0 0 0 0 0 0 0 0 0 0 0 0 -0 0 0 0 0 0 0 0 0 0 0 0 0 0 0
Wind_Speed_500mb
12 16 18 20 21 22 19 19 21 21 22 24 24 25 23 23 24 25 26 26 27 28 28 30 31 32 32 32 35 39 41 42 41 41 41 41 41 40 38 37 37 36 35
13 15 19 21 22 22 21 19 18 18 17 18 19 20 19 19 20 21 22 23 23 22 22 22 22 23 24 25 24 24 25 28 31 33 33 33 33 35 35 34 34 34 33
12 15 19 21 22 21 22 19 16 16 15 15 15 15 15 14 15 16 17 18 18 18 17 16 15 16 17 16 16 15 18 20 20 21 23 25 26 26 28 28 28 28 30
11 12 16 23 24 21 19 18 17 14 12 11 10 10 9 9 10 11 11 12 13 13 13 11 10 11 10 10 8 7 8 9 10 12 13 14 18 19 18 21 21 20 22
15 13 14 20 25 24 21 18 16 13 11 9 7 7 6 4 4 5 4 5 5 6 7 6 6 6 4 3 2 1 0 2 4 6 6 6 8 10 12 11 15 14 14
16 13 12 18 23 24 22 19 17 15 12 9 7 6 6 5 4 3 2 4 6 7 6 4 2 2 2 3 4 5 6 6 7 5 4 2 3 3 6 8 6 9 8
11 13 9 10 14 18 17 18 18 15 12 10 9 10 12 12 12 10 10 11 11 12 13 13 12 11 9 8 10 12 15 16 14 12 11 10 8 11 8 5 4 3 5
10 21 18 15 12 10 10 13 15 16 17 16 15 15 15 16 16 14 13 13 14 15 15 14 14 14 13 12 14 14 15 17 17 15 13 18 18 17 14 9 9 6 5
17 11 10 8 11 11 14 15 15 17 18 20 21 21 21 20 17 15 15 15 17 17 15 14 14 13 14 14 14 14 16 16 15 18 15 19 21 21 17 16 13 10 10
23 17 14 8 6 5 4 7 9 12 16 19 20 20 19 19 18 18 17 18 18 16 15 15 15 15 14 15 16 14 16 16 23 14 12 10 13 18 20 18 19 19 17
14 11 15 9 6 5 2 4 8 7 9 12 16 19 21 20 20 20 21 19 16 19 22 21 21 21 20 21 19 21 23 20 21 3 4 5 4 13 18 24 23 21 25
7 3 3 5 11 6 5 7 7 9 12 15 15 17 19 21 23 23 19 15 19 27 31 30 27 27 25 22 18 21 17 14 23 17 8 5 10 15 18 16 18 23 22
5 4 8 11 8 7 10 12 13 15 15 16 17 18 20 21 21 20 20 27 27 29 28 29 29 30 28 21 18 16 20 21 17 11 16 14 15 15 14 17 14 15 17
3 2 9 7 7 15 20 21 26 25 26 28 29 27 25 25 26 28 31 30 27 31 32 29 32 34 33 31 30 26 27 28 24 19 16 17 20 19 20 18 16 18 19
8 6 4 6 11 18 29 34 37 38 34 35 32 31 27 26 26 30 27 29 30 34 36 34 35 38 37 37 37 34 29 28 23 19 19 19 21 21 24 23 21 19 13
5 4 7 14 20 27 31 29 32 36 40 44 45 42 39 32 31 26 27 26 29 33 36 37 36 35 36 39 35 30 26 25 25 23 21 19 17 20 16 17 23 18 10
15 14 15 17 25 22 23 31 30 35 39 41 43 40 39 39 37 35 29 28 27 27 27 24 25 27 28 31 33 32 30 30 29 30 32 32 28 18 17 19 13 10 19
20 20 16 14 13 14 11 20 18 25 29 36 38 42 45 48 47 39 37 36 30 27 26 27 21 17 22 30 30 26 22 22 25 28 26 25 26 27 26 23 19 16 20
12 9 7 8 7 6 4 7 11 13 24 27 31 35 43 44 41 40 44 42 43 38 30 25 20 18 11 19 21 21 19 18 18 18 17 15 13 18 20 18 16 18 18
11 12 11 11 5 4 11 12 18 14 22 32 31 34 42 35 29 32 36 41 43 43 41 32 18 3 7 17 25 22 19 15 9 4 2 2 6 9 11 12 12 14 14
9 17 18 16 15 15 15 20 25 25 26 36 23 38 48 48 46 44 42 43 47 49 47 44 29 19 7 11 30 38 24 12 11 2 5 1 2 7 10 13 15 18 18
14 18 22 23 22 25 28 28 31 39 42 36 40 42 43 39 52 56 53 34 31 35 46 49 56 67 63 38 50 39 19 25 4 8 8 4 15 10 9 11 12 14 13
23 23 26 28 30 29 30 36 41 43 44 47 48 47 49 52 49 56 59 55 50 46 46 49 47 48 69 97 64 37 14 8 13 15 13 9 9 10 7 5 8 8 6
24 30 37 38 40 37 39 43 46 50 56 55 57 57 58 57 55 57 54 55 58 59 51 35 35 41 31 42 48 58 48 39 18 17 33 27 25 21 12 9 6 4 3
21 24 27 38 44 47 47 50 56 62 67 70 69 73 72 68 68 67 66 64 56 57 53 42 34 31 41 30 37 49 42 27 32 43 29 31 25 20 22 18 8 5 5
22 26 29 29 31 35 41 46 50 53 54 60 65 72 75 76 70 70 74 67 65 59 55 50 42 34 30 37 29 45 35 30 35 37 33 30 17 19 14 14 11 11 9
Wind_Direction_500mb
149 142 147 137 133 130 133 127 119 119 120 118 114 112 109 107 103 100 96 93 90 88 86 86 88 89 90 89 88 83 79 76 74 71 69 69 68 66 63 61 63 66 67
143 145 152 153 149 144 145 144 134 126 121 118 119 118 117 112 106 102 100 97 93 88 86 85 89 91 90 90 87 81 76 78 75 75 73 69 69 70 68 62 57 54 56
143 144 156 161 162 155 152 152 151 143 135 132 130 125 119 113 110 105 99 95 94 92 88 87 85 86 88 89 88 80 80 78 74 73 74 76 72 68 70 70 65 60 52
139 133 151 166 170 166 160 159 160 162 155 143 134 131 132 126 112 102 101 103 105 104 102 98 91 82 82 89 96 88 77 57 50 64 69 68 76 75 70 71 69 66 60
126 126 141 166 173 174 174 171 172 174 177 179 174 171 167 158 135 118 106 90 80 84 98 108 110 106 90 74 83 89 79 304 318 336 17 51 71 88 88 77 71 65 58
126 119 131 157 173 181 184 184 184 188 193 205 216 232 240 245 250 263 312 346 356 350 343 351 352 269 234 255 285 283 279 273 275 285 279 326 185 192 127 106 78 62 51
119 96 103 132 167 189 199 208 212 218 227 241 264 279 282 283 286 299 315 328 334 329 325 329 322 318 314 304 295 298 306 309 312 303 274 257 270 233 218 166 142 53 26
148 137 136 146 155 186 220 241 247 250 258 267 276 283 289 291 293 298 304 310 311 308 314 321 318 315 311 305 305 311 308 306 314 310 295 278 267 253 243 220 221 245 303
102 91 88 111 144 181 192 211 230 249 258 265 272 276 279 284 285 286 288 291 294 295 302 303 303 305 302 306 310 304 299 305 319 322 311 302 278 259 247 250 247 239 263
105 93 96 109 130 179 256 253 255 260 268 273 267 272 277 273 271 269 269 275 276 275 275 283 294 300 289 295 300 290 299 313 331 302 299 303 289 266 245 259 265 259 260
125 107 129 97 91 141 131 306 296 287 271 271 284 284 280 273 268 269 271 271 261 273 276 278 283 283 291 290 300 266 294 300 320 315 300 267 270 277 271 278 275 266 257
196 298 126 29 14 35 44 337 329 306 290 290 286 281 277 276 277 276 274 264 272 280 281 284 282 281 282 283 292 281 282 306 330 241 292 256 271 269 274 286 287 254 253
216 291 308 319 348 357 306 288 327 300 304 299 296 295 298 285 278 276 274 282 279 278 283 279 286 286 278 273 281 284 274 274 298 270 276 248 270 253 252 254 265 241 252
159 313 323 341 342 333 329 316 320 317 307 297 294 294 287 288 288 285 284 285 292 285 281 281 283 283 282 269 274 275 276 278 276 274 280 256 276 264 243 255 251 244 261
87 13 336 344 317 320 323 318 310 313 318 323 317 301 285 270 282 291 298 303 302 297 294 294 285 284 278 270 274 278 275 270 272 260 260 261 272 266 254 244 250 257 285
46 16 338 339 337 330 326 326 331 339 341 338 332 319 309 304 299 300 297 303 302 295 293 289 282 276 268 268 269 275 274 274 272 268 267 264 261 265 259 255 270 269 257
59 54 43 51 38 25 21 17 5 14 2 346 333 327 319 315 308 304 300 287 281 281 279 273 270 266 262 263 267 270 275 274 272 271 269 268 265 260 250 246 265 267 244
85 81 72 47 63 39 35 23 9 24 358 346 330 317 313 311 312 305 294 289 277 260 251 249 246 248 261 262 264 267 269 272 270 274 283 278 267 263 257 256 254 228 220
124 134 98 102 91 42 301 348 326 343 338 316 308 311 314 309 301 302 297 286 280 269 248 235 227 236 274 295 276 267 274 269 280 287 298 292 259 245 244 238 235 226 235
165 188 189 198 190 255 275 265 295 277 321 302 301 314 319 313 317 312 299 288 281 263 238 225 222 284 338 342 314 301 306 271 237 269 227 153 153 167 185 190 198 210 225
211 220 223 228 234 246 265 269 273 271 296 291 305 308 303 308 313 318 312 286 281 278 278 265 248 318 295 333 326 315 336 156 310 330 192 247 163 159 182 202 212 227 240
241 248 241 244 249 251 258 266 268 274 282 276 282 287 284 296 304 310 310 291 289 295 296 279 274 255 286 307 311 319 308 301 216 348 222 261 306 287 217 217 215 213 226
256 271 268 267 262 263 264 276 275 276 280 279 282 280 285 289 291 294 303 292 300 304 301 292 279 283 258 264 282 278 308 305 268 309 309 342 321 272 241 183 158 158 153
281 281 277 269 262 258 268 272 276 281 283 280 280 278 276 273 275 281 284 284 287 294 300 288 283 268 278 273 262 272 259 269 271 278 274 275 290 265 252 235 195 167 156
267 283 271 264 261 260 273 282 279 278 281 283 281 281 277 274 272 275 276 274 274 281 287 278 273 278 262 260 246 260 261 264 266 258 242 259 253 248 250 249 220 193 184
275 277 273 270 278 285 287 284 285 288 290 292 292 293 291 288 283 278 275 277 273 271 273 273 271 266 262 256 246 242 229 237 246 250 234 228 247 240 231 236 206 181 172
Wind_Speed_850mb
12 16 18 20 21 22 19 19 21 21 22 24 24 25 23 23 24 25 26 26 27 28 28 30 31 32 32 32 35 39 41 42 41 41 41 41 41 40 38 37 37 36 35
13 15 19 21 22 22 21 19 18 18 17 18 19 20 19 19 20 21 22 23 23 22 22 22 22 23 24 25 24 24 25 28 31 33 33 33 33 35 35 34 34 34 33
12 15 19 21 22 21 22 19 16 16 15 15 15 15 15 14 15 16 17 18 18 18 17 16 15 16 17 16 16 15 18 20 20 21 23 25 26 26 28 28 28 28 30
11 12 16 23 24 21 19 18 17 14 12 11 10 10 9 9 10 11 11 12 13 13 13 11 10 11 10 10 8 7 8 9 10 12 13 14 18 19 18 21 21 20 22
15 13 14 20 25 24 21 18 16 13 11 9 7 7 6 4 4 5 4 5 5 6 7 6 6 6 4 3 2 1 0 2 4 6 6 6 8 10 12 11 15 14 14
16 13 12 18 23 24 22 19 17 15 12 9 7 6 6 5 4 3 2 4 6 7 6 4 2 2 2 3 4 5 6 6 7 5 4 2 3 3 6 8 6 9 8
11 13 9 10 14 18 17 18 18 15 12 10 9 10 12 12 12 10 10 11 11 12 13 13 12 11 9 8 10 12 15 16 14 12 11 10 8 11 8 5 4 3 5
10 21 18 15 12 10 10 13 15 16 17 16 15 15 15 16 16 14 13 13 14 15 15 14 14 14 13 12 14 14 15 17 17 15 13 18 18 17 14 9 9 6 5
17 11 10 8 11 11 14 15 15 17 18 20 21 21 21 20 17 15 15 15 17 17 15 14 14 13 14 14 14 14 16 16 15 18 15 19 21 21 17 16 13 10 10
23 17 14 8 6 5 4 7 9 12 16 19 20 20 19 19 18 18 17 18 18 16 15 15 15 15 14 15 16 14 16 16 23 14 12 10 13 18 20 18 19 19 17
14 11 15 9 6 5 2 4 8 7 9 12 16 19 21 20 20 20 21 19 16 19 22 21 21 21 20 21 19 21 23 20 21 3 4 5 4 13 18 24 23 21 25
7 3 3 5 11 6 5 7 7 9 12 15 15 17 19 21 23 23 19 15 19 27 31 30 27 27 25 22 18 21 17 14 23 17 8 5 10 15 18 16 18 23 22
5 4 8 11 8 7 10 12 13 15 15 16 17 18 20 21 21 20 20 27 27 29 28 29 29 30 28 21 18 16 20 21 17 11 16 14 15 15 14 17 14 15 17
3 2 9 7 7 15 20 21 26 25 26 28 29 27 25 25 26 28 31 30 27 31 32 29 32 34 33 31 30 26 27 28 24 19 16 17 20 19 20 18 16 18 19
8 6 4 6 11 18 29 34 37 38 34 35 32 31 27 26 26 30 27 29 30 34 36 34 35 38 37 37 37 34 29 28 23 19 19 19 21 21 24 23 21 19 13
5 4 7 14 20 27 31 29 32 36 40 44 45 42 39 32 31 26 27 26 29 33 36 37 36 35 36 39 35 30 26 25 25 23 21 19 17 20 16 17 23 18 10
15 14 15 17 25 22 23 31 30 35 39 41 43 40 39 39 37 35 29 28 27 27 27 24 25 27 28 31 33 32 30 30 29 30 32 32 28 18 17 19 13 10 19
20 20 16 14 13 14 11 20 18 25 29 36 38 42 45 48 47 39 37 36 30 27 26 27 21 17 22 30 30 26 22 22 25 28 26 25 26 27 26 23 19 16 20
12 9 7 8 7 6 4 7 11 13 24 27 31 35 43 44 41 40 44 42 43 38 30 25 20 18 11 19 21 21 19 18 18 18 17 15 13 18 20 18 16 18 18
11 12 11 11 5 4 11 12 18 14 22 32 31 34 42 35 29 32 36 41 43 43 41 32 18 3 7 17 25 22 19 15 9 4 2 2 6 9 11 12 12 14 14
9 17 18 16 15 15 15 20 25 25 26 36 23 38 48 48 46 44 42 43 47 49 47 44 29 19 7 11 30 38 24 12 11 2 5 1 2 7 10 13 15 18 18
14 18 22 23 22 25 28 28 31 39 42 36 40 42 43 39 52 56 53 34 31 35 46 49 56 67 63 38 50 39 19 25 4 8 8 4 15 10 9 11 12 14 13
23 23 26 28 30 29 30 36 41 43 44 47 48 47 49 52 49 56 59 55 50 46 46 49 47 48 69 97 64 37 14 8 13 15 13 9 9 10 7 5 8 8 6
24 30 37 38 40 37 39 43 46 50 56 55 57 57 58 57 55 57 54 55 58 59 51 35 35 41 31 42 48 58 48 39 18 17 33 27 25 21 12 9 6 4 3
21 24 27 38 44 47 47 50 56 62 67 70 69 73 72 68 68 67 66 64 56 57 53 42 34 31 41 30 37 49 42 27 32 43 29 31 25 20 22 18 8 5 5
22 26 29 29 31 35 41 46 50 53 54 60 65 72 75 76 70 70 74 67 65 59 55 50 42 34 30 37 29 45 35 30 35 37 33 30 17 19 14 14 11 11 9
Wind_Direction_850mb
149 142 147 137 133 130 133 127 119 119 120 118 114 112 109 107 103 100 96 93 90 88 86 86 88 89 90 89 88 83 79 76 74 71 69 69 68 66 63 61 63 66 67
143 145 152 153 149 144 145 144 134 126 121 118 119 118 117 112 106 102 100 97 93 88 86 85 89 91 90 90 87 81 76 78 75 75 73 69 69 70 68 62 57 54 56
143 144 156 161 162 155 152 152 151 143 135 132 130 125 119 113 110 105 99 95 94 92 88 87 85 86 88 89 88 80 80 78 74 73 74 76 72 68 70 70 65 60 52
139 133 151 166 170 166 160 159 160 162 155 143 134 131 132 126 112 102 101 103 105 104 102 98 91 82 82 89 96 88 77 57 50 64 69 68 76 75 70 71 69 66 60
126 126 141 166 173 174 174 171 172 174 177 179 174 171 167 158 135 118 106 90 80 84 98 108 110 106 90 74 83 89 79 304 318 336 17 51 71 88 88 77 71 65 58
126 119 131 157 173 181 184 184 184 188 193 205 216 232 240 245 250 263 312 346 356 350 343 351 352 269 234 255 285 283 279 273 275 285 279 326 185 192 127 106 78 62 51
119 96 103 132 167 189 199 208 212 218 227 241 264 279 282 283 286 299 315 328 334 329 325 329 322 318 314 304 295 298 306 309 312 303 274 257 270 233 218 166 142 53 26
148 137 136 146 155 186 220 241 247 250 258 267 276 283 289 291 293 298 304 310 311 308 314 321 318 315 311 305 305 311 308 306 314 310 295 278 267 253 243 220 221 245 303
102 91 88 111 144 181 192 211 230 249 258 265 272 276 279 284 285 286 288 291 294 295 302 303 303 305 302 306 310 304 299 305 319 322 311 302 278 259 247 250 247 239 263
105 93 96 109 130 179 256 253 255 260 268 273 267 272 277 273 271 269 269 275 276 275 275 283 294 300 289 295 300 290 299 313 331 302 299 303 289 266 245 259 265 259 260
125 107 129 97 91 141 131 306 296 287 271 271 284 284 280 273 268 269 271 271 261 273 276 278 283 283 291 290 300 266 294 300 320 315 300 267 270 277 271 278 275 266 257
196 298 126 29 14 35 44 337 329 306 290 290 286 281 277 276 277 276 274 264 272 280 281 284 282 281 282 283 292 281 282 306 330 241 292 256 271 269 274 286 287 254 253
216 291 308 319 348 357 306 288 327 300 304 299 296 295 298 285 278 276 274 282 279 278 283 279 286 286 278 273 281 284 274 274 298 270 276 248 270 253 252 254 265 241 252
159 313 323 341 342 333 329 316 320 317 307 297 294 294 287 288 288 285 284 285 292 285 281 281 283 283 282 269 274 275 276 278 276 274 280 256 276 264 243 255 251 244 261
87 13 336 344 317 320 323 318 310 313 318 323 317 301 285 270 282 291 298 303 302 297 294 294 285 284 278 270 274 278 275 270 272 260 260 261 272 266 254 244 250 257 285
46 16 338 339 337 330 326 326 331 339 341 338 332 319 309 304 299 300 297 303 302 295 293 289 282 276 268 268 269 275 274 274 272 268 267 264 261 265 259 255 270 269 257
59 54 43 51 38 25 21 17 5 14 2 346 333 327 319 315 308 304 300 287 281 281 279 273 270 266 262 263 267 270 275 274 272 271 269 268 265 260 250 246 265 267 244
85 81 72 47 63 39 35 23 9 24 358 346 330 317 313 311 312 305 294 289 277 260 251 249 246 248 261 262 264 267 269 272 270 274 283 278 267 263 257 256 254 228 220
124 134 98 102 91 42 301 348 326 343 338 316 308 311 314 309 301 302 297 286 280 269 248 235 227 236 274 295 276 267 274 269 280 287 298 292 259 245 244 238 235 226 235
165 188 189 198 190 255 275 265 295 277 321 302 301 314 319 313 317 312 299 288 281 263 238 225 222 284 338 342 314 301 306 271 237 269 227 153 153 167 185 190 198 210 225
211 220 223 228 234 246 265 269 273 271 296 291 305 308 303 308 313 318 312 286 281 278 278 265 248 318 295 333 326 315 336 156 310 330 192 247 163 159 182 202 212 227 240
241 248 241 244 249 251 258 266 268 274 282 276 282 287 284 296 304 310 310 291 289 295 296 279 274 255 286 307 311 319 308 301 216 348 222 261 306 287 217 217 215 213 226
256 271 268 267 262 263 264 276 275 276 280 279 282 280 285 289 291 294 303 292 300 304 301 292 279 283 258 264 282 278 308 305 268 309 309 342 321 272 241 183 158 158 153
281 281 277 269 262 258 268 272 276 281 283 280 280 278 276 273 275 281 284 284 287 294 300 288 283 268 278 273 262 272 259 269 271 278 274 275 290 265 252 235 195 167 156
267 283 271 264 261 260 273 282 279 278 281 283 281 281 277 274 272 275 276 274 274 281 287 278 273 278 262 260 246 260 261 264 266 258 242 259 253 248 250 249 220 193 184
275 277 273 270 278 285 287 284 285 288 290 292 292 293 291 288 283 278 275 277 273 271 273 273 271 266 262 256 246 242 229 237 246 250 234 228 247 240 231 236 206 181 172